START_TIME,STEP,MOV.,M34,t_acc.,L5,t_acc.,L18,t_acc.,L14,t_acc.
1979-07-13 09:00:25.040 ,0,0,0.,12.0,0.,12.0,0.,12.0,0.,12.0
1979-07-13 09:00:37.040 ,0,0,0.,12.0,0.,12.0,0.,12.0,0.,12.0
1979-07-13 09:00:49.040 ,0,1,0.,12.0,0.,12.0,0.,12.0,0.,12.0
1979-07-13 09:01:01.040 ,0,1,0.,12.0,0.,12.0,0.,12.0,0.,12.0
1979-07-13 09:01:13.040 ,0,0,0.,12.0,0.,12.0,0.,12.0,0.,12.0
1979-07-13 09:01:25.040 ,0,0,0.,12.0,0.,12.0,0.,12.0,0.,12.0
1979-07-13 09:01:37.040 ,1,1,0.,12.0,0.,12.0,0.,12.0,0.,12.0
1979-07-13 09:01:49.040 ,1,1,0.,12.0,0.,12.0,0.,12.0,0.,12.0
1979-07-13 09:02:01.040 ,1,0,1.,12.0,0.,12.0,0.,12.0,0.,12.0
1979-07-13 09:02:13.040 ,1,0,0.,12.0,0.,12.0,0.,12.0,0.,12.0
1979-07-13 09:02:25.040 ,2,1,1.,12.0,0.,12.0,0.,12.0,0.,12.0
1979-07-13 09:02:37.040 ,2,1,0.,12.0,0.,12.0,0.,12.0,0.,12.0
1979-07-13 09:02:49.040 ,2,0,0.,12.0,0.,12.0,0.,12.0,0.,12.0
1979-07-13 09:03:01.040 ,2,0,1.,12.0,0.,12.0,0.,12.0,0.,12.0
1979-07-13 09:03:13.040 ,3,1,1.,12.0,0.,12.0,0.,12.0,0.,12.0
1979-07-13 09:03:25.040 ,3,1,1.,12.0,0.,12.0,0.,12.0,0.,12.0
1979-07-13 09:03:37.040 ,3,0,0.,12.0,0.,12.0,0.,12.0,0.,12.0
1979-07-13 09:03:49.040 ,3,0,0.,12.0,0.,12.0,0.,12.0,0.,12.0
1979-07-13 09:04:01.040 ,4,1,0.,12.0,0.,12.0,0.,12.0,0.,12.0
1979-07-13 09:04:13.040 ,4,1,0.,12.0,0.,12.0,0.,12.0,0.,12.0
1979-07-13 09:04:25.040 ,4,0,0.,12.0,0.,12.0,0.,12.0,0.,12.0
1979-07-13 09:04:37.040 ,4,0,0.,12.0,0.,12.0,0.,12.0,0.,12.0
1979-07-13 09:04:49.040 ,5,1,0.,12.0,0.,12.0,0.,12.0,0.,12.0
1979-07-13 09:05:01.040 ,5,1,1.,12.0,0.,12.0,0.,12.0,0.,12.0
1979-07-13 09:05:13.040 ,5,0,0.,12.0,0.,12.0,0.,12.0,0.,12.0
1979-07-13 09:05:25.040 ,5,0,0.,12.0,0.,12.0,0.,12.0,0.,12.0
1979-07-13 09:05:37.040 ,6,1,0.,12.0,0.,12.0,0.,12.0,0.,12.0
1979-07-13 09:05:49.040 ,6,1,0.,12.0,0.,12.0,0.,12.0,0.,12.0
1979-07-13 09:06:01.040 ,6,0,0.,12.0,0.,12.0,0.,12.0,0.,12.0
1979-07-13 09:06:13.040 ,6,0,0.,12.0,0.,12.0,0.,12.0,1.,12.0
1979-07-13 09:08:01.040 ,0,0,0.,12.0,0.,12.0,0.,12.0,1.,12.0
1979-07-13 09:08:13.040 ,0,0,0.,12.0,0.,12.0,0.,12.0,0.,12.0
1979-07-13 09:08:25.040 ,7,1,0.,12.0,0.,12.0,0.,12.0,0.,12.0
1979-07-13 09:08:37.040 ,7,1,0.,12.0,0.,12.0,0.,12.0,1.,12.0
1979-07-13 09:08:49.040 ,4,1,0.,12.0,0.,12.0,0.,12.0,0.,12.0
1979-07-13 09:09:01.040 ,4,1,0.,12.0,0.,12.0,0.,12.0,0.,12.0
1979-07-13 09:09:13.040 ,0,1,0.,12.0,0.,12.0,0.,12.0,0.,12.0
1979-07-13 09:09:25.040 ,0,1,0.,12.0,0.,12.0,0.,12.0,1.,12.0
1979-07-13 09:09:37.040 ,3,1,0.,12.0,0.,12.0,0.,12.0,0.,12.0
1979-07-13 09:09:49.040 ,3,1,0.,12.0,0.,12.0,0.,12.0,1.,12.0
1979-07-13 09:10:01.040 ,7,1,0.,12.0,0.,12.0,0.,12.0,1.,12.0
1979-07-13 09:10:13.040 ,7,1,0.,12.0,0.,12.0,0.,12.0,0.,12.0
1979-07-13 09:10:25.040 ,4,1,0.,12.0,0.,12.0,0.,12.0,0.,12.0
1979-07-13 09:10:37.040 ,4,1,0.,12.0,0.,12.0,0.,12.0,0.,12.0
1979-07-13 09:10:25.040 ,4,1,0.,12.0,0.,12.0,0.,12.0,0.,12.0
1979-07-13 09:10:37.040 ,4,1,0.,12.0,0.,12.0,0.,12.0,0.,12.0
1979-07-13 09:10:49.040 ,0,1,1.,12.0,0.,12.0,0.,12.0,0.,12.0
1979-07-13 09:11:01.040 ,0,1,0.,12.0,0.,12.0,0.,12.0,0.,12.0
1979-07-13 09:11:13.040 ,3,1,0.,12.0,0.,12.0,0.,12.0,0.,12.0
1979-07-13 09:11:25.040 ,3,1,0.,12.0,0.,12.0,0.,12.0,0.,12.0
1979-07-13 09:11:37.040 ,7,1,0.,12.0,0.,12.0,0.,12.0,0.,12.0
1979-07-13 09:11:49.040 ,7,1,0.,12.0,0.,12.0,0.,12.0,1.,12.0
1979-07-13 09:12:01.040 ,4,1,0.,12.0,0.,12.0,0.,12.0,0.,12.0
1979-07-13 09:12:13.040 ,4,1,0.,12.0,0.,12.0,0.,12.0,0.,12.0
1979-07-13 09:12:25.040 ,0,1,0.,12.0,0.,12.0,0.,12.0,0.,12.0
1979-07-13 09:12:37.040 ,0,1,0.,12.0,0.,12.0,0.,12.0,0.,12.0
1979-07-13 09:12:49.040 ,3,1,0.,12.0,0.,12.0,0.,12.0,0.,12.0
1979-07-13 09:13:01.040 ,3,1,1.,12.0,0.,12.0,0.,12.0,0.,12.0
1979-07-13 09:13:13.040 ,7,1,0.,12.0,0.,12.0,0.,12.0,0.,12.0
1979-07-13 09:13:25.040 ,7,1,1.,12.0,0.,12.0,0.,12.0,1.,12.0
1979-07-13 09:13:37.040 ,4,1,0.,12.0,0.,12.0,0.,12.0,0.,12.0
1979-07-13 09:13:49.040 ,4,1,1.,12.0,0.,12.0,0.,12.0,0.,12.0
1979-07-13 09:14:01.040 ,0,1,0.,12.0,0.,12.0,0.,12.0,0.,12.0
1979-07-13 09:14:13.040 ,0,1,0.,12.0,0.,12.0,0.,12.0,0.,12.0
1979-07-13 09:14:25.040 ,3,1,0.,12.0,0.,12.0,0.,12.0,0.,12.0
1979-07-13 09:14:37.040 ,3,1,0.,12.0,0.,12.0,0.,12.0,0.,12.0
1979-07-13 09:14:49.040 ,7,1,0.,12.0,0.,12.0,0.,12.0,0.,12.0
1979-07-13 09:15:01.040 ,7,1,1.,12.0,0.,12.0,0.,12.0,0.,12.0
1979-07-13 09:15:13.040 ,4,1,0.,12.0,0.,12.0,0.,12.0,0.,12.0
1979-07-13 09:15:25.040 ,4,1,1.,12.0,0.,12.0,0.,12.0,0.,12.0
1979-07-13 09:15:37.040 ,0,1,0.,12.0,0.,12.0,0.,12.0,0.,12.0
1979-07-13 09:15:49.040 ,0,1,1.,12.0,0.,12.0,0.,12.0,0.,12.0
1979-07-13 09:16:01.040 ,3,1,0.,12.0,0.,12.0,0.,12.0,0.,12.0
1979-07-13 09:16:13.040 ,3,1,0.,12.0,0.,12.0,0.,12.0,0.,12.0
1979-07-13 09:16:25.040 ,7,1,1.,12.0,0.,12.0,0.,12.0,0.,12.0
1979-07-13 09:16:37.040 ,7,1,0.,12.0,0.,12.0,0.,12.0,0.,12.0
1979-07-13 09:16:49.040 ,4,1,0.,12.0,0.,12.0,0.,12.0,0.,12.0
1979-07-13 09:17:01.040 ,4,1,1.,12.0,0.,12.0,0.,12.0,0.,12.0
1979-07-13 09:17:13.040 ,0,1,0.,12.0,0.,12.0,0.,12.0,0.,12.0
1979-07-13 09:17:25.040 ,0,1,1.,12.0,0.,12.0,0.,12.0,0.,12.0
1979-07-13 09:17:37.040 ,0,0,0.,12.0,0.,12.0,0.,12.0,0.,12.0
1979-07-13 09:17:49.040 ,0,0,0.,12.0,0.,12.0,0.,12.0,0.,12.0
1979-07-13 09:18:01.040 ,0,0,0.,12.0,0.,12.0,0.,12.0,0.,12.0
1979-07-13 09:18:13.040 ,0,0,1.,12.0,0.,12.0,0.,12.0,0.,12.0
1979-07-13 09:18:25.040 ,5,1,0.,12.0,0.,12.0,0.,12.0,0.,12.0
1979-07-13 09:18:37.040 ,5,1,1.,12.0,0.,12.0,0.,12.0,1.,12.0
1979-07-13 09:18:49.040 ,5,0,,0,,0,,0,,0
1979-07-13 09:19:01.040 ,5,0,0.,12.0,0.,12.0,0.,12.0,0.,12.0
1979-07-13 09:19:13.040 ,4,1,1.,12.0,0.,12.0,0.,12.0,0.,12.0
1979-07-13 09:19:25.040 ,4,1,0.,12.0,0.,12.0,0.,12.0,1.,12.0
1979-07-13 09:19:37.040 ,4,0,0.,12.0,0.,12.0,0.,12.0,1.,12.0
1979-07-13 09:19:49.040 ,4,0,0.,12.0,0.,12.0,0.,12.0,0.,12.0
1979-07-13 09:20:01.040 ,3,1,0.,12.0,0.,12.0,0.,12.0,0.,12.0
1979-07-13 09:20:13.040 ,3,1,0.,12.0,0.,12.0,0.,12.0,0.,12.0
1979-07-13 09:20:25.040 ,3,0,0.,12.0,0.,12.0,0.,12.0,1.,12.0
1979-07-13 09:20:37.040 ,3,0,0.,12.0,0.,12.0,0.,12.0,0.,12.0
1979-07-13 09:20:49.040 ,2,1,0.,12.0,0.,12.0,0.,12.0,1.,12.0
1979-07-13 09:21:01.040 ,2,1,0.,12.0,0.,12.0,0.,12.0,0.,12.0
1979-07-13 09:21:13.040 ,2,0,0.,12.0,0.,12.0,0.,12.0,0.,12.0
1979-07-13 09:21:25.040 ,2,0,0.,12.0,0.,12.0,0.,12.0,0.,12.0
1979-07-13 09:21:37.040 ,1,1,0.,12.0,0.,12.0,0.,12.0,0.,12.0
1979-07-13 09:21:49.040 ,1,1,0.,12.0,0.,12.0,0.,12.0,0.,12.0
1979-07-13 09:22:01.040 ,1,0,0.,12.0,0.,12.0,0.,12.0,0.,12.0
1979-07-13 09:22:13.040 ,1,0,0.,12.0,0.,12.0,0.,12.0,0.,12.0
1979-07-13 09:22:25.040 ,0,1,0.,12.0,0.,12.0,0.,12.0,0.,12.0
1979-07-13 09:22:37.040 ,0,1,0.,12.0,0.,12.0,0.,12.0,0.,12.0
1979-07-13 09:22:49.040 ,0,0,0.,12.0,0.,12.0,0.,12.0,1.,12.0
1979-07-13 09:23:01.040 ,0,0,0.,12.0,0.,12.0,0.,12.0,0.,12.0
1979-07-13 09:23:13.040 ,0,1,0.,12.0,0.,12.0,0.,12.0,0.,12.0
1979-07-13 09:23:25.040 ,0,1,0.,12.0,0.,12.0,0.,12.0,0.,12.0
1979-07-13 09:23:37.040 ,0,0,1.,12.0,0.,12.0,0.,12.0,0.,12.0
1979-07-13 09:23:49.040 ,0,0,0.,12.0,0.,12.0,0.,12.0,0.,12.0
1979-07-13 09:24:01.040 ,1,1,1.,12.0,0.,12.0,0.,12.0,0.,12.0
1979-07-13 09:24:13.040 ,1,1,0.,12.0,0.,12.0,0.,12.0,0.,12.0
1979-07-13 09:24:25.040 ,1,0,0.,12.0,0.,12.0,0.,12.0,0.,12.0
1979-07-13 09:24:37.040 ,1,0,0.,12.0,0.,12.0,0.,12.0,0.,12.0
1979-07-13 09:24:49.040 ,2,1,0.,12.0,0.,12.0,0.,12.0,0.,12.0
1979-07-13 09:25:01.040 ,2,1,1.,12.0,0.,12.0,0.,12.0,0.,12.0
1979-07-13 09:25:13.040 ,2,0,0.,12.0,0.,12.0,0.,12.0,3.,12.0
1979-07-13 09:25:25.040 ,2,0,0.,12.0,0.,12.0,0.,12.0,0.,12.0
1979-07-13 09:25:37.040 ,3,1,0.,12.0,0.,12.0,0.,12.0,1.,12.0
1979-07-13 09:25:49.040 ,3,1,0.,12.0,0.,12.0,0.,12.0,1.,12.0
1979-07-13 09:26:01.040 ,3,0,0.,12.0,0.,12.0,0.,12.0,1.,12.0
1979-07-13 09:26:13.040 ,3,0,0.,12.0,0.,12.0,0.,12.0,0.,12.0
1979-07-13 09:26:25.040 ,4,1,0.,12.0,0.,12.0,0.,12.0,0.,12.0
1979-07-13 09:26:37.040 ,4,1,0.,12.0,0.,12.0,0.,12.0,1.,12.0
1979-07-13 09:26:49.040 ,4,0,0.,12.0,0.,12.0,0.,12.0,0.,12.0
1979-07-13 09:27:01.040 ,4,0,0.,12.0,0.,12.0,0.,12.0,0.,12.0
1979-07-13 09:27:13.040 ,5,1,1.,12.0,0.,12.0,0.,12.0,0.,12.0
1979-07-13 09:27:25.040 ,5,1,0.,12.0,0.,12.0,0.,12.0,1.,12.0
1979-07-13 09:27:37.040 ,5,0,0.,12.0,0.,12.0,0.,12.0,0.,12.0
1979-07-13 09:27:49.040 ,5,0,1.,12.0,0.,12.0,0.,12.0,0.,12.0
1979-07-13 09:28:01.040 ,6,1,3.,12.0,0.,12.0,0.,12.0,0.,12.0
1979-07-13 09:28:13.040 ,6,1,1.,12.0,0.,12.0,0.,12.0,0.,12.0
1979-07-13 09:28:25.040 ,6,0,0.,12.0,0.,12.0,0.,12.0,0.,12.0
1979-07-13 09:28:37.040 ,6,0,0.,12.0,0.,12.0,0.,12.0,0.,12.0
1979-07-13 09:28:49.040 ,7,1,0.,12.0,0.,12.0,0.,12.0,0.,12.0
1979-07-13 09:29:01.040 ,7,1,0.,12.0,0.,12.0,0.,12.0,0.,12.0
1979-07-13 09:29:13.040 ,7,0,0.,12.0,0.,12.0,0.,12.0,0.,12.0
1979-07-13 09:29:25.040 ,7,0,0.,12.0,0.,12.0,0.,12.0,0.,12.0
1979-07-13 09:29:37.040 ,7,1,0.,12.0,0.,12.0,0.,12.0,0.,12.0
1979-07-13 09:29:49.040 ,7,1,0.,12.0,0.,12.0,0.,12.0,0.,12.0
1979-07-13 09:30:01.040 ,7,0,0.,12.0,0.,12.0,0.,12.0,0.,12.0
1979-07-13 09:30:13.040 ,7,0,0.,12.0,0.,12.0,0.,12.0,0.,12.0
1979-07-13 09:30:25.040 ,6,1,0.,12.0,0.,12.0,0.,12.0,0.,12.0
1979-07-13 09:30:37.040 ,6,1,0.,12.0,0.,12.0,0.,12.0,0.,12.0
1979-07-13 09:30:49.040 ,6,0,0.,12.0,0.,12.0,0.,12.0,0.,12.0
1979-07-13 09:31:01.040 ,6,0,0.,12.0,0.,12.0,0.,12.0,0.,12.0
1979-07-13 09:31:13.040 ,5,1,0.,12.0,0.,12.0,0.,12.0,0.,12.0
1979-07-13 09:31:25.040 ,5,1,0.,12.0,0.,12.0,0.,12.0,0.,12.0
1979-07-13 09:31:37.040 ,5,0,1.,12.0,0.,12.0,0.,12.0,0.,12.0
1979-07-13 09:31:49.040 ,5,0,1.,12.0,0.,12.0,0.,12.0,0.,12.0
1979-07-13 09:32:01.040 ,4,1,0.,12.0,0.,12.0,0.,12.0,0.,12.0
1979-07-13 09:32:13.040 ,4,1,0.,12.0,0.,12.0,0.,12.0,0.,12.0
1979-07-13 09:32:25.040 ,4,0,0.,12.0,0.,12.0,0.,12.0,0.,12.0
1979-07-13 09:32:37.040 ,4,0,0.,12.0,0.,12.0,0.,12.0,0.,12.0
1979-07-13 09:32:49.040 ,3,1,0.,12.0,0.,12.0,0.,12.0,0.,12.0
1979-07-13 09:33:01.040 ,3,1,0.,12.0,0.,12.0,0.,12.0,1.,12.0
1979-07-13 09:33:13.040 ,3,0,0.,12.0,0.,12.0,0.,12.0,0.,12.0
1979-07-13 09:33:25.040 ,3,0,0.,12.0,0.,12.0,0.,12.0,1.,12.0
1979-07-13 09:33:37.040 ,2,1,0.,12.0,0.,12.0,0.,12.0,0.,12.0
1979-07-13 09:33:49.040 ,2,1,0.,12.0,0.,12.0,0.,12.0,0.,12.0
1979-07-13 09:34:01.040 ,2,0,0.,12.0,0.,12.0,0.,12.0,0.,12.0
1979-07-13 09:34:13.040 ,2,0,0.,12.0,0.,12.0,0.,12.0,0.,12.0
1979-07-13 09:34:25.040 ,1,1,0.,12.0,0.,12.0,0.,12.0,0.,12.0
1979-07-13 09:34:37.040 ,1,1,0.,12.0,0.,12.0,0.,12.0,0.,12.0
1979-07-13 09:34:49.040 ,1,0,0.,12.0,0.,12.0,0.,12.0,0.,12.0
1979-07-13 09:35:01.040 ,1,0,1.,12.0,0.,12.0,0.,12.0,0.,12.0
1979-07-13 09:35:13.040 ,0,1,0.,12.0,0.,12.0,0.,12.0,0.,12.0
1979-07-13 09:35:25.040 ,0,1,0.,12.0,0.,12.0,0.,12.0,0.,12.0
1979-07-13 09:35:37.040 ,0,0,0.,12.0,0.,12.0,0.,12.0,1.,12.0
1979-07-13 09:35:49.040 ,0,0,1.,12.0,0.,12.0,0.,12.0,0.,12.0
1979-07-13 09:36:01.040 ,0,1,0.,12.0,0.,12.0,0.,12.0,0.,12.0
1979-07-13 09:36:13.040 ,0,1,0.,12.0,0.,12.0,0.,12.0,0.,12.0
1979-07-13 09:36:25.040 ,0,0,0.,12.0,0.,12.0,0.,12.0,1.,12.0
1979-07-13 09:36:37.040 ,0,0,0.,12.0,0.,12.0,0.,12.0,0.,12.0
1979-07-13 09:36:49.040 ,1,1,0.,12.0,0.,12.0,0.,12.0,0.,12.0
1979-07-13 09:37:01.040 ,1,1,0.,12.0,0.,12.0,0.,12.0,0.,12.0
1979-07-13 09:37:13.040 ,1,0,0.,12.0,0.,12.0,0.,12.0,1.,12.0
1979-07-13 09:37:25.040 ,1,0,0.,12.0,0.,12.0,0.,12.0,0.,12.0
1979-07-13 09:37:37.040 ,2,1,0.,12.0,0.,12.0,0.,12.0,0.,12.0
1979-07-13 09:37:49.040 ,2,1,0.,12.0,0.,12.0,0.,12.0,0.,12.0
1979-07-13 09:38:01.040 ,2,0,0.,12.0,0.,12.0,0.,12.0,0.,12.0
1979-07-13 09:38:13.040 ,2,0,0.,12.0,0.,12.0,0.,12.0,1.,12.0
1979-07-13 09:38:25.040 ,3,1,0.,12.0,0.,12.0,0.,12.0,0.,12.0
1979-07-13 09:38:37.040 ,3,1,0.,12.0,0.,12.0,0.,12.0,0.,12.0
1979-07-13 09:38:49.040 ,3,0,0.,12.0,0.,12.0,0.,12.0,0.,12.0
1979-07-13 09:39:01.040 ,3,0,0.,12.0,0.,12.0,0.,12.0,0.,12.0
1979-07-13 09:39:13.040 ,4,1,0.,12.0,0.,12.0,0.,12.0,0.,12.0
1979-07-13 09:39:25.040 ,4,1,0.,12.0,0.,12.0,0.,12.0,0.,12.0
1979-07-13 09:39:37.040 ,4,0,0.,12.0,0.,12.0,0.,12.0,0.,12.0
1979-07-13 09:39:49.040 ,4,0,0.,12.0,0.,12.0,0.,12.0,0.,12.0
1979-07-13 09:40:01.040 ,5,1,0.,12.0,0.,12.0,0.,12.0,0.,12.0
1979-07-13 09:40:13.040 ,5,1,0.,12.0,0.,12.0,0.,12.0,0.,12.0
1979-07-13 09:40:25.040 ,0,0,0.,12.0,0.,12.0,0.,12.0,0.,12.0
1979-07-13 09:40:37.040 ,0,0,1.,12.0,0.,12.0,0.,12.0,0.,12.0
1979-07-13 09:41:37.040 ,0,0,0.,12.0,0.,12.0,0.,12.0,0.,12.0
1979-07-13 09:41:49.040 ,0,0,0.,12.0,0.,12.0,0.,12.0,0.,12.0
1979-07-13 09:42:01.040 ,0,0,0.,12.0,0.,12.0,0.,12.0,0.,12.0
1979-07-13 09:42:13.040 ,0,0,0.,12.0,0.,12.0,0.,12.0,0.,12.0
1979-07-13 09:42:25.040 ,7,1,0.,12.0,0.,12.0,0.,12.0,0.,12.0
1979-07-13 09:42:37.040 ,7,1,0.,12.0,0.,12.0,0.,12.0,0.,12.0
1979-07-13 09:42:49.040 ,7,0,0.,12.0,0.,12.0,0.,12.0,0.,12.0
1979-07-13 09:43:01.040 ,7,0,0.,12.0,0.,12.0,0.,12.0,0.,12.0
1979-07-13 09:43:13.040 ,6,1,0.,12.0,0.,12.0,0.,12.0,1.,12.0
1979-07-13 09:43:25.040 ,6,1,0.,12.0,0.,12.0,0.,12.0,0.,12.0
1979-07-13 09:43:37.040 ,6,0,0.,12.0,0.,12.0,0.,12.0,0.,12.0
1979-07-13 09:43:49.040 ,6,0,0.,12.0,0.,12.0,0.,12.0,0.,12.0
1979-07-13 09:44:01.040 ,5,1,0.,12.0,0.,12.0,0.,12.0,0.,12.0
1979-07-13 09:44:13.040 ,5,1,0.,12.0,0.,12.0,0.,12.0,0.,12.0
1979-07-13 09:44:25.040 ,5,0,0.,12.0,0.,12.0,0.,12.0,0.,12.0
1979-07-13 09:44:37.040 ,5,0,0.,12.0,0.,12.0,0.,12.0,0.,12.0
1979-07-13 09:44:49.040 ,4,1,0.,12.0,0.,12.0,0.,12.0,1.,12.0
1979-07-13 09:45:01.040 ,4,1,0.,12.0,0.,12.0,0.,12.0,0.,12.0
1979-07-13 09:45:13.040 ,4,0,0.,12.0,0.,12.0,0.,12.0,1.,12.0
1979-07-13 09:45:25.040 ,4,0,0.,12.0,0.,12.0,0.,12.0,0.,12.0
1979-07-13 09:45:37.030 ,3,1,0.,12.0,0.,12.0,0.,12.0,0.,12.0
1979-07-13 09:45:49.030 ,3,1,0.,12.0,0.,12.0,0.,12.0,0.,12.0
1979-07-13 09:46:01.030 ,3,0,0.,12.0,0.,12.0,0.,12.0,0.,12.0
1979-07-13 09:46:13.030 ,3,0,0.,12.0,0.,12.0,0.,12.0,0.,12.0
1979-07-13 09:46:25.030 ,2,1,0.,12.0,0.,12.0,0.,12.0,0.,12.0
1979-07-13 09:46:37.030 ,2,1,0.,12.0,0.,12.0,0.,12.0,0.,12.0
1979-07-13 09:46:49.030 ,2,0,0.,12.0,0.,12.0,0.,12.0,0.,12.0
1979-07-13 09:47:01.030 ,2,0,0.,12.0,0.,12.0,0.,12.0,0.,12.0
1979-07-13 09:47:13.030 ,1,1,0.,12.0,0.,12.0,0.,12.0,1.,12.0
1979-07-13 09:47:25.030 ,1,1,0.,12.0,0.,12.0,0.,12.0,0.,12.0
1979-07-13 09:47:37.030 ,1,0,0.,12.0,0.,12.0,0.,12.0,0.,12.0
1979-07-13 09:47:49.030 ,1,0,0.,12.0,0.,12.0,0.,12.0,0.,12.0
1979-07-13 09:48:01.030 ,0,1,0.,12.0,0.,12.0,0.,12.0,0.,12.0
1979-07-13 09:48:13.030 ,0,1,0.,12.0,0.,12.0,0.,12.0,0.,12.0
1979-07-13 09:48:25.030 ,0,0,0.,12.0,0.,12.0,0.,12.0,1.,12.0
1979-07-13 09:48:37.030 ,0,0,0.,12.0,0.,12.0,0.,12.0,0.,12.0
1979-07-13 09:48:49.030 ,0,1,0.,12.0,0.,12.0,0.,12.0,0.,12.0
1979-07-13 09:49:01.030 ,0,1,0.,12.0,0.,12.0,0.,12.0,0.,12.0
1979-07-13 09:49:13.030 ,0,0,0.,12.0,0.,12.0,0.,12.0,2.,12.0
1979-07-13 09:49:25.030 ,0,0,0.,12.0,0.,12.0,0.,12.0,0.,12.0
1979-07-13 09:49:37.030 ,1,1,0.,12.0,0.,12.0,0.,12.0,0.,12.0
1979-07-13 09:49:49.030 ,1,1,0.,12.0,0.,12.0,0.,12.0,0.,12.0
1979-07-13 09:50:01.030 ,1,0,1.,12.0,0.,12.0,0.,12.0,0.,12.0
1979-07-13 09:50:13.030 ,1,0,0.,12.0,0.,12.0,0.,12.0,0.,12.0
1979-07-13 09:50:25.030 ,2,1,0.,12.0,0.,12.0,0.,12.0,1.,12.0
1979-07-13 09:50:37.030 ,2,1,0.,12.0,0.,12.0,0.,12.0,1.,12.0
1979-07-13 09:50:49.030 ,2,0,0.,12.0,0.,12.0,0.,12.0,0.,12.0
1979-07-13 09:51:01.030 ,2,0,0.,12.0,0.,12.0,0.,12.0,0.,12.0
1979-07-13 09:51:13.030 ,3,1,0.,12.0,0.,12.0,0.,12.0,0.,12.0
1979-07-13 09:51:25.030 ,3,1,1.,12.0,0.,12.0,0.,12.0,0.,12.0
1979-07-13 09:51:37.030 ,3,0,1.,12.0,0.,12.0,0.,12.0,0.,12.0
1979-07-13 09:51:49.030 ,3,0,0.,12.0,0.,12.0,0.,12.0,0.,12.0
1979-07-13 09:52:01.030 ,4,1,1.,12.0,0.,12.0,0.,12.0,0.,12.0
1979-07-13 09:52:13.030 ,4,1,0.,12.0,0.,12.0,0.,12.0,0.,12.0
1979-07-13 09:52:25.030 ,4,0,0.,12.0,0.,12.0,0.,12.0,0.,12.0
1979-07-13 09:52:37.030 ,4,0,0.,12.0,0.,12.0,0.,12.0,0.,12.0
1979-07-13 09:52:49.030 ,5,1,0.,12.0,0.,12.0,0.,12.0,0.,12.0
1979-07-13 09:53:01.030 ,5,1,0.,12.0,0.,12.0,0.,12.0,0.,12.0
1979-07-13 09:53:13.030 ,5,0,0.,12.0,0.,12.0,0.,12.0,0.,12.0
1979-07-13 09:53:25.030 ,5,0,0.,12.0,0.,12.0,0.,12.0,0.,12.0
1979-07-13 09:53:37.030 ,6,1,0.,12.0,0.,12.0,0.,12.0,0.,12.0
1979-07-13 09:53:49.030 ,6,1,0.,12.0,0.,12.0,0.,12.0,0.,12.0
1979-07-13 09:54:01.030 ,6,0,0.,12.0,0.,12.0,0.,12.0,0.,12.0
1979-07-13 09:54:13.030 ,6,0,0.,12.0,0.,12.0,0.,12.0,0.,12.0
1979-07-13 09:54:25.030 ,7,0,0.,12.0,0.,12.0,0.,12.0,0.,12.0
1979-07-13 09:54:37.030 ,7,0,1.,12.0,0.,12.0,0.,12.0,1.,12.0
1979-07-13 09:54:49.030 ,7,0,0.,12.0,0.,12.0,0.,12.0,0.,12.0
1979-07-13 09:55:01.030 ,7,0,,0,,0,,0,,0
1979-07-13 09:55:13.030 ,4,1,0.,12.0,0.,12.0,0.,12.0,0.,12.0
1979-07-13 09:55:25.030 ,4,1,0.,12.0,0.,12.0,0.,12.0,0.,12.0
1979-07-13 09:55:37.030 ,0,1,0.,12.0,0.,12.0,0.,12.0,0.,12.0
1979-07-13 09:55:49.030 ,0,1,0.,12.0,0.,12.0,0.,12.0,0.,12.0
1979-07-13 09:56:01.030 ,3,1,0.,12.0,0.,12.0,0.,12.0,0.,12.0
1979-07-13 09:56:13.030 ,3,1,0.,12.0,0.,12.0,0.,12.0,0.,12.0
1979-07-13 09:56:25.030 ,7,1,0.,12.0,0.,12.0,0.,12.0,0.,12.0
1979-07-13 09:56:37.030 ,7,1,0.,12.0,0.,12.0,0.,12.0,0.,12.0
1979-07-13 09:56:49.030 ,4,1,0.,12.0,0.,12.0,0.,12.0,0.,12.0
1979-07-13 09:57:01.030 ,4,1,0.,12.0,0.,12.0,0.,12.0,0.,12.0
1979-07-13 09:57:13.030 ,0,1,0.,12.0,0.,12.0,0.,12.0,0.,12.0
1979-07-13 09:57:25.030 ,0,1,0.,12.0,0.,12.0,0.,12.0,0.,12.0
1979-07-13 09:57:37.030 ,3,1,1.,12.0,0.,12.0,0.,12.0,0.,12.0
1979-07-13 09:57:49.030 ,3,1,0.,12.0,0.,12.0,0.,12.0,1.,12.0
1979-07-13 09:58:01.030 ,7,1,0.,12.0,0.,12.0,0.,12.0,0.,12.0
1979-07-13 09:58:13.030 ,7,1,1.,12.0,0.,12.0,0.,12.0,0.,12.0
1979-07-13 09:58:25.030 ,4,1,0.,12.0,0.,12.0,0.,12.0,0.,12.0
1979-07-13 09:58:37.030 ,4,1,0.,12.0,0.,12.0,0.,12.0,0.,12.0
1979-07-13 09:58:49.030 ,0,1,0.,12.0,0.,12.0,0.,12.0,0.,12.0
1979-07-13 09:59:01.030 ,0,1,0.,12.0,0.,12.0,0.,12.0,0.,12.0
1979-07-13 09:59:13.030 ,3,1,0.,12.0,0.,12.0,0.,12.0,0.,12.0
1979-07-13 09:59:25.030 ,3,1,0.,12.0,0.,12.0,0.,12.0,0.,12.0
1979-07-13 09:59:37.030 ,7,1,0.,12.0,0.,12.0,0.,12.0,0.,12.0
1979-07-13 09:59:49.030 ,7,1,0.,12.0,0.,12.0,0.,12.0,0.,12.0
1979-07-13 10:00:01.030 ,4,1,0.,12.0,0.,12.0,0.,12.0,0.,12.0
1979-07-13 10:00:13.030 ,4,1,0.,12.0,0.,12.0,0.,12.0,0.,12.0
1979-07-13 10:00:25.030 ,0,1,0.,12.0,0.,12.0,0.,12.0,0.,12.0
1979-07-13 10:00:37.040 ,0,1,0.,12.0,0.,12.0,0.,12.0,0.,12.0
1979-07-13 10:00:49.030 ,3,1,0.,12.0,0.,12.0,0.,12.0,0.,12.0
1979-07-13 10:01:01.040 ,3,1,0.,12.0,0.,12.0,0.,12.0,0.,12.0
1979-07-13 10:02:25.040 ,0,0,0.,12.0,0.,12.0,0.,12.0,0.,12.0
1979-07-13 10:02:37.040 ,0,0,0.,12.0,0.,12.0,0.,12.0,0.,12.0
1979-07-13 10:02:49.040 ,7,1,0.,12.0,0.,12.0,0.,12.0,0.,12.0
1979-07-13 10:03:01.040 ,7,1,1.,12.0,0.,12.0,0.,12.0,1.,12.0
1979-07-13 10:03:13.040 ,4,1,0.,12.0,0.,12.0,0.,12.0,0.,12.0
1979-07-13 10:03:25.040 ,4,1,1.,12.0,0.,12.0,0.,12.0,0.,12.0
1979-07-13 10:03:37.040 ,0,1,0.,12.0,0.,12.0,0.,12.0,0.,12.0
1979-07-13 10:03:49.040 ,0,1,0.,12.0,0.,12.0,0.,12.0,0.,12.0
1979-07-13 10:04:01.040 ,3,1,0.,12.0,0.,12.0,0.,12.0,0.,12.0
1979-07-13 10:04:13.040 ,3,1,0.,12.0,0.,12.0,0.,12.0,0.,12.0
1979-07-13 10:04:25.040 ,7,1,1.,12.0,0.,12.0,0.,12.0,0.,12.0
1979-07-13 10:04:37.040 ,7,1,0.,12.0,0.,12.0,0.,12.0,1.,12.0
1979-07-13 10:04:49.040 ,4,1,0.,12.0,0.,12.0,0.,12.0,1.,12.0
1979-07-13 10:05:01.040 ,4,1,0.,12.0,0.,12.0,0.,12.0,1.,12.0
1979-07-13 10:05:13.040 ,0,1,0.,12.0,0.,12.0,0.,12.0,0.,12.0
1979-07-13 10:05:25.040 ,0,1,0.,12.0,0.,12.0,0.,12.0,0.,12.0
1979-07-13 10:05:37.040 ,0,0,0.,12.0,0.,12.0,0.,12.0,0.,12.0
1979-07-13 10:05:49.040 ,0,0,0.,12.0,0.,12.0,0.,12.0,0.,12.0
1979-07-13 10:06:01.040 ,0,0,0.,12.0,0.,12.0,0.,12.0,0.,12.0
1979-07-13 10:06:13.040 ,0,0,0.,12.0,0.,12.0,0.,12.0,0.,12.0
1979-07-13 10:06:25.040 ,5,1,0.,12.0,0.,12.0,0.,12.0,0.,12.0
1979-07-13 10:06:37.040 ,5,1,0.,12.0,0.,12.0,0.,12.0,0.,12.0
1979-07-13 10:06:49.040 ,5,0,0.,12.0,0.,12.0,0.,12.0,0.,12.0
1979-07-13 10:07:01.040 ,5,0,0.,12.0,0.,12.0,0.,12.0,0.,12.0
1979-07-13 10:07:13.040 ,0,0,0.,12.0,0.,12.0,0.,12.0,0.,12.0
1979-07-13 10:07:25.040 ,0,0,0.,12.0,0.,12.0,0.,12.0,1.,12.0
1979-07-13 10:07:37.040 ,0,0,1.,12.0,0.,12.0,0.,12.0,0.,12.0
1979-07-13 10:07:49.040 ,0,0,0.,12.0,0.,12.0,0.,12.0,0.,12.0
1979-07-13 10:08:49.040 ,0,0,1.,12.0,0.,12.0,0.,12.0,0.,12.0
1979-07-13 10:09:01.040 ,0,0,0.,12.0,0.,12.0,0.,12.0,1.,12.0
1979-07-13 10:09:13.040 ,0,0,0.,12.0,0.,12.0,0.,12.0,0.,12.0
1979-07-13 10:09:25.040 ,0,0,1.,12.0,0.,12.0,0.,12.0,1.,12.0
1979-07-13 10:09:37.040 ,1,1,0.,12.0,0.,12.0,0.,12.0,0.,12.0
1979-07-13 10:09:49.040 ,1,1,0.,12.0,0.,12.0,0.,12.0,0.,12.0
1979-07-13 10:10:01.040 ,1,0,0.,12.0,0.,12.0,0.,12.0,0.,12.0
1979-07-13 10:10:13.040 ,1,0,0.,12.0,0.,12.0,0.,12.0,0.,12.0
1979-07-13 10:10:25.040 ,0,1,1.,12.0,0.,12.0,0.,12.0,0.,12.0
1979-07-13 10:10:37.040 ,0,1,0.,12.0,0.,12.0,0.,12.0,0.,12.0
1979-07-13 10:10:49.040 ,0,0,0.,12.0,0.,12.0,0.,12.0,0.,12.0
1979-07-13 10:11:01.040 ,0,0,0.,12.0,0.,12.0,0.,12.0,0.,12.0
1979-07-13 10:11:13.040 ,0,1,0.,12.0,0.,12.0,0.,12.0,0.,12.0
1979-07-13 10:11:25.040 ,0,1,0.,12.0,0.,12.0,0.,12.0,1.,12.0
1979-07-13 10:11:37.040 ,0,0,0.,12.0,0.,12.0,0.,12.0,0.,12.0
1979-07-13 10:11:49.040 ,0,0,1.,12.0,0.,12.0,0.,12.0,0.,12.0
1979-07-13 10:12:01.030 ,1,1,0.,12.0,0.,12.0,0.,12.0,0.,12.0
1979-07-13 10:12:13.030 ,1,1,0.,12.0,0.,12.0,0.,12.0,0.,12.0
1979-07-13 10:12:25.030 ,1,0,0.,12.0,0.,12.0,0.,12.0,0.,12.0
1979-07-13 10:12:37.030 ,1,0,0.,12.0,0.,12.0,0.,12.0,0.,12.0
1979-07-13 10:12:49.030 ,2,1,0.,12.0,0.,12.0,0.,12.0,0.,12.0
1979-07-13 10:13:01.030 ,2,1,0.,12.0,0.,12.0,0.,12.0,0.,12.0
1979-07-13 10:13:13.030 ,2,0,0.,12.0,0.,12.0,0.,12.0,0.,12.0
1979-07-13 10:13:25.030 ,2,0,0.,12.0,0.,12.0,0.,12.0,0.,12.0
1979-07-13 10:13:37.030 ,3,1,0.,12.0,0.,12.0,0.,12.0,0.,12.0
1979-07-13 10:13:49.030 ,3,1,0.,12.0,0.,12.0,0.,12.0,0.,12.0
1979-07-13 10:14:01.030 ,3,0,0.,12.0,0.,12.0,0.,12.0,0.,12.0
1979-07-13 10:14:13.030 ,3,0,0.,12.0,0.,12.0,0.,12.0,0.,12.0
1979-07-13 10:14:25.030 ,4,1,0.,12.0,0.,12.0,0.,12.0,0.,12.0
1979-07-13 10:14:37.030 ,4,1,0.,12.0,0.,12.0,0.,12.0,0.,12.0
1979-07-13 10:14:49.030 ,4,0,0.,12.0,0.,12.0,0.,12.0,0.,12.0
1979-07-13 10:15:01.030 ,4,0,0.,12.0,0.,12.0,0.,12.0,0.,12.0
1979-07-13 10:16:01.030 ,0,0,0.,12.0,0.,12.0,0.,12.0,0.,12.0
1979-07-13 10:16:13.030 ,0,0,0.,12.0,0.,12.0,0.,12.0,1.,12.0
1979-07-13 10:16:25.030 ,0,0,0.,12.0,0.,12.0,0.,12.0,1.,12.0
1979-07-13 10:16:37.030 ,0,0,0.,12.0,0.,12.0,0.,12.0,0.,12.0
1979-07-13 10:16:49.030 ,7,1,0.,12.0,0.,12.0,0.,12.0,0.,12.0
1979-07-13 10:17:01.030 ,7,1,0.,12.0,0.,12.0,0.,12.0,0.,12.0
1979-07-13 10:17:13.030 ,7,0,0.,12.0,0.,12.0,0.,12.0,0.,12.0
1979-07-13 10:17:25.030 ,7,0,0.,12.0,0.,12.0,0.,12.0,1.,12.0
1979-07-13 10:17:37.030 ,7,1,0.,12.0,0.,12.0,0.,12.0,0.,12.0
1979-07-13 10:17:49.030 ,7,1,0.,12.0,0.,12.0,0.,12.0,0.,12.0
1979-07-13 10:18:01.030 ,7,0,0.,12.0,0.,12.0,0.,12.0,0.,12.0
1979-07-13 10:18:13.030 ,7,0,0.,12.0,0.,12.0,0.,12.0,0.,12.0
1979-07-13 10:18:25.030 ,6,1,0.,12.0,0.,12.0,0.,12.0,0.,12.0
1979-07-13 10:18:37.030 ,6,1,0.,12.0,0.,12.0,0.,12.0,0.,12.0
1979-07-13 10:18:49.030 ,6,0,0.,12.0,0.,12.0,0.,12.0,0.,12.0
1979-07-13 10:19:01.030 ,6,0,0.,12.0,0.,12.0,0.,12.0,0.,12.0
1979-07-13 10:19:13.030 ,5,1,0.,12.0,0.,12.0,0.,12.0,0.,12.0
1979-07-13 10:19:25.030 ,5,1,0.,12.0,0.,12.0,0.,12.0,0.,12.0
1979-07-13 10:19:37.030 ,5,0,1.,12.0,0.,12.0,0.,12.0,0.,12.0
1979-07-13 10:19:49.030 ,5,0,0.,12.0,0.,12.0,0.,12.0,0.,12.0
1979-07-13 10:20:01.030 ,4,1,0.,12.0,0.,12.0,0.,12.0,0.,12.0
1979-07-13 10:20:13.030 ,4,1,0.,12.0,0.,12.0,0.,12.0,0.,12.0
1979-07-13 10:20:25.030 ,4,0,0.,12.0,0.,12.0,0.,12.0,1.,12.0
1979-07-13 10:20:37.030 ,4,0,0.,12.0,0.,12.0,0.,12.0,1.,12.0
1979-07-13 10:20:49.030 ,3,1,0.,12.0,0.,12.0,0.,12.0,0.,12.0
1979-07-13 10:21:01.030 ,3,1,0.,12.0,0.,12.0,0.,12.0,0.,12.0
1979-07-13 10:21:13.030 ,3,0,0.,12.0,0.,12.0,0.,12.0,0.,12.0
1979-07-13 10:21:25.030 ,3,0,0.,12.0,0.,12.0,0.,12.0,0.,12.0
1979-07-13 10:21:37.030 ,2,1,0.,12.0,0.,12.0,0.,12.0,0.,12.0
1979-07-13 10:21:49.030 ,2,1,0.,12.0,0.,12.0,0.,12.0,0.,12.0
1979-07-13 10:22:01.030 ,2,0,0.,12.0,0.,12.0,0.,12.0,0.,12.0
1979-07-13 10:22:13.030 ,2,0,0.,12.0,0.,12.0,0.,12.0,0.,12.0